Regional Weather Roundup
Issued by NWS

Home | Current Version | Previous Version | Graphics & Text | Print | Product List | Glossary On
Versions: 1 2 3 4 5 6 7 8 9 10 11 12 13 14 15 16 17 18 19 20 21 22 23 24 25 26 27 28 29 30 31 32 33 34 35 36 37 38 39 40 41 42 43 44 45 46 47 48 49 50
000
ASUS43 KLOT 261512
RWRIL

ILLINOIS REGIONAL WEATHER ROUNDUP
NATIONAL WEATHER SERVICE CHICAGO/ROMEOVILLE IL
900 AM CST SUN FEB 26 2017

NOTE: "FAIR" INDICATES FEW OR NO CLOUDS BELOW 12,000 FEET WITH NO
SIGNIFICANT WEATHER AND/OR OBSTRUCTIONS TO VISIBILITY.

* THESE STATIONS ARE NOT UNDER NWS QUALITY CONTROL. THEY ALSO MAY NOT
  REPORT WEATHER SUCH AS PRECIPITATION OR FOG.

ILZ001-002-007-009-015-016-024-261600-
NORTHWEST ILLINOIS

CITY           SKY/WX    TMP DP  RH WIND       PRES   REMARKS
MOLINE         MOSUNNY   36  19  50 SW10      29.96R WCI  28
STERLING*      MOSUNNY   36  21  54 SW10G17   29.96R WCI  28
$$

ILZ003-004-008-010-011-017-018-261600-
NORTH CENTRAL ILLINOIS

CITY           SKY/WX    TMP DP  RH WIND       PRES   REMARKS
ROCKFORD       CLOUDY    33  20  58 S17       29.94F WCI  22
FREEPORT*      MOSUNNY   31  20  64 SW18G28   29.92F WCI  19
ROCHELLE*      CLOUDY    32  22  65 S21       29.95F WCI  20
DE KALB*       CLOUDY    31  21  68 S21       29.95F WCI  18
PERU*          MOSUNNY   33  17  51 S17       30.00F WCI  22
$$

ILZ005-006-012>014-019>023-261600-
NORTHEAST ILLINOIS

CITY           SKY/WX    TMP DP  RH WIND       PRES   REMARKS
CHICAGO-OHARE  PTSUNNY   33  16  49 S17G26    29.99S WCI  22
CHICAGO-MIDWAY CLOUDY    32  15  49 S20G26    30.02S WCI  20
AURORA         CLOUDY    32  19  58 S15       29.99F WCI  22
LANSING*       CLOUDY    31  22  68 S21       30.05S WCI  19
JOLIET*        CLOUDY    33  19  56 S13G24    30.04S WCI  24
WAUKEGAN       CLOUDY    32  17  54 SW20      29.95S WCI  20
DUPAGE AIRPORT CLOUDY    31  17  56 S15G25    29.99R WCI  20
KANKAKEE*      CLOUDY    32  19  59 S18G24    30.08S WCI  20
WHEELING       CLOUDY    32  14  47 SW17G25   30.00S WCI  21
MORRIS*        CLOUDY    32  20  61 S18       30.01F WCI  21
ROMEOVILLE*    CLOUDY    32  23  69 S20       30.02S WCI  20
NORTHERLY ISL    N/A     31  15  52 S13         N/A  WCI  21
$$

LMZ740>746-261600-
SOUTHERN LAKE MICHIGAN

STATION/POSITION SKY/WX   TEMP    WIND        PRES    VSBY  WAVE
                          AIR SEA DIR/SP/G                  HT/PER
                          (F)     (DEG/KT/KT) (MB)    (MI)  (FT/S)
HARRISON CRIB              31     200/ 25/ 27   N/A
BURNHAM HARBOR             32     190/ 14/ 17   N/A
CALUMET HARBOR             31     170/ 15/ 21 1016.2F
BURNS HARBOR               29     190/ 15/ 21 1017.9R
MICHIGAN CITY              28     150/ 14/ 17   N/A
$$

ILZ025>027-034>036-040-047-049-050-058-095>099-261600-
WEST-CENTRAL ILLINOIS

CITY           SKY/WX    TMP DP  RH WIND       PRES   REMARKS
QUINCY         CLOUDY    36  18  48 S13       30.04R WCI  27
GALESBURG*     CLOUDY    34  21  59 S15       29.99S WCI  24
MACOMB*        CLOUDY    34  18  51 S16G24    30.03S WCI  24
JACKSONVILLE*  CLOUDY    34  17  49 S13       30.08S WCI  25
PITTSFIELD*    MOSUNNY   35  19  51 S12G20    30.08S WCI  26
$$

ILZ028>032-037-038-041>044-048-051>054-059>061-261600-
CENTRAL ILLINOIS

CITY           SKY/WX    TMP DP  RH WIND       PRES   REMARKS
PONTIAC        PTSUNNY   35  19  51 S26G33    30.05F WCI  22
BLOOMINGTON    CLOUDY    33  18  53 S20       30.06F WCI  21
DECATUR        MOSUNNY   34  15  46 S14       30.11S WCI  25
PEORIA         CLOUDY    33  18  53 S17       30.04S WCI  22
LACON*         MOSUNNY   34  16  47 S18G24    30.01F WCI  23
LINCOLN*       CLOUDY    33  20  59 S16       30.09S WCI  23
SPRINGFIELD    CLOUDY    36  17  46 S15       30.10R WCI  27
TAYLORVILLE    CLOUDY    34  18  52 S18       30.12R WCI  23
$$

ILZ033-039-045-046-055>057-062-063-261600-
EAST-CENTRAL ILLINOIS

CITY           SKY/WX    TMP DP  RH WIND       PRES   REMARKS
CHAMPAIGN      CLOUDY    32  17  54 S16       30.11S WCI  21
RANTOUL*       CLOUDY    33  19  56 S20       30.11S WCI  21
MATTOON        MOSUNNY   34  19  54 S17       30.13S WCI  23
PARIS*         PTSUNNY   32  20  60 S16       30.17S WCI  22
$$

ILZ079-100>102-261600-
SOUTHWEST ILLINOIS

CITY           SKY/WX    TMP DP  RH WIND       PRES   REMARKS
ALTON          CLOUDY    36  16  44 S14       30.13S WCI  27
BELLEVILLE     SUNNY     36  21  55 VRB3      30.14S
CAHOKIA*       MOSUNNY   38  13  35 S13G22    30.14S WCI  30
SPARTA*        MOSUNNY   33  18  53 S12       30.18R WCI  25
$$

ILZ064>066-069>071-074>076-080>082-084>086-088>090-092>094-261600-
SOUTH-CENTRAL ILLINOIS

CITY           SKY/WX    TMP DP  RH WIND       PRES   REMARKS
CARBONDALE     MOSUNNY   36  21  54 SE12      30.19R WCI  28
CAIRO*         CLOUDY    36  22  55 SE10      30.21S WCI  29
EFFINGHAM*     SUNNY     34  21  58 SE13      30.18S WCI  25
MT. VERNON     MOSUNNY   36  20  52 S8        30.18S WCI  30
CENTRALIA*     SUNNY     36  20  52 SE14      30.16R WCI  27
SALEM*         SUNNY     36  17  45 S10       30.16R WCI  28
METROPOLIS*    MOSUNNY   36  21  53 CALM      30.23R
$$

ILZ067-068-072-073-078-083-087-091-261600-
SOUTHEAST ILLINOIS

CITY           SKY/WX    TMP DP  RH WIND       PRES   REMARKS
LAWRENCEVILLE  SUNNY     34  20  56 S13       30.22R WCI  25
FLORA*         SUNNY     35  21  57 S15       30.19S WCI  25
FAIRFIELD*     SUNNY     35  21  57 SE7       30.19S WCI  29
HARRISBURG*    SUNNY     34  24  66 SE8       30.22R WCI  27
ROBINSON*      SUNNY     32  18  57 S12       30.21S WCI  23
CARMI*         SUNNY     34  21  57 SE14      30.21S WCI  25
$$

ABBREVIATIONS USED IN REMARKS
   TC - TEMPERATURE IN CELSIUS
  WCI - WIND CHILL INDEX
   HX - HEAT INDEX
  VSB - VISIBILITY
$$




USA.gov is the U.S. government's official web portal to all federal, state and local government web resources and services.